This demonstration page uses our WeatherBlox Daily Observations layout. Learn more.

Left ArrowRight Arrow

Hourly Observations for March 15, 2018

Temp ( °F °C ) Dew Point ( °F °C ) Humidity (%) Winds ( mph kmh ) Pressure ( in mb ) Visibility ( mi km ) Precip ( " mm )
12:53 am 00:53 Mostly Cloudy 43 6.1 40 4.4 89 89 SE 3 6 29.96 1015 10 16 0.00 0.00
1:53 am 01:53 Clear 43 6.1 40 4.4 89 89 S 6 9 29.96 1015 10 16 0.00 0.00
2:15 am 02:15 Mostly Cloudy 42 5.6 40 4.4 92 92 Calm 29.97 1015 10 16 0.00 0.00
2:27 am 02:27 Partly Cloudy 42 5.6 39 3.9 89 89 Calm 29.97 1015 10 16 0.00 0.00
2:53 am 02:53 Clear 41 5 39 3.9 93 93 Calm 29.97 1015 10 16 0.00 0.00
3:36 am 03:36 Mostly Cloudy 42 5.6 39 3.9 89 89 Calm 29.97 1015 10 16 0.00 0.00
3:53 am 03:53 Cloudy 42 5.6 40 4.4 92 92 NNE 3 6 29.96 1015 10 16 0.00 0.00
4:53 am 04:53 Cloudy 43 6.1 40 4.4 89 89 Calm 29.95 1014 10 16 0.00 0.00
5:53 am 05:53 Cloudy with Light Rain 43 6.1 41 5 93 93 Calm 29.93 1014 9 14 0.00 0.03
6:31 am 06:31 Cloudy with Light Rain 43 6.1 41 5 93 93 Calm 29.94 1014 8 13 0.01 0.25
6:40 am 06:40 Cloudy with Light Rain 43 6.1 42 5.6 97 97 SSW 3 6 29.94 1014 10 16 0.01 0.25
6:53 am 06:53 Cloudy 44 6.7 41 5 89 89 S 3 6 29.93 1014 10 16 0.01 0.25
7:18 am 07:18 Cloudy 43 6.1 41 5 93 93 Calm 29.94 1014 10 16 0.00 0.00
7:28 am 07:28 Cloudy 43 6.1 41 5 93 93 Calm 29.94 1014 10 16 0.00 0.00
7:53 am 07:53 Cloudy 43 6.1 41 5 93 93 Calm 29.92 1013 10 16 0.00 0.00
8:03 am 08:03 Cloudy 43 6.1 41 5 93 93 S 3 6 29.94 1014 10 16 0.00 0.00
8:43 am 08:43 Cloudy with Light Rain 44 6.7 42 5.6 93 93 S 8 13 29.94 1014 5 8 0.04 1.02
8:53 am 08:53 Cloudy with Light Rain 44 6.7 42 5.6 93 93 SSW 9 15 29.91 1013 3 5 0.06 1.52
8:59 am 08:59 Cloudy with Rain 44 6.7 42 5.6 93 93 SSW 7 11 29.94 1014 3 4 0.01 0.25
9:17 am 09:17 Cloudy with Light Rain 44 6.7 42 5.6 93 93 S 12 19 29.94 1014 3 5 0.06 1.52
9:28 am 09:28 Cloudy with Light Rain 44 6.7 42 5.6 93 93 S 13 20 29.94 1014 10 16 0.06 1.52
9:53 am 09:53 Cloudy 45 7.2 41 5 86 86 SSW 10 17 29.91 1013 10 16 0.07 1.78
10:29 am 10:29 Cloudy 46 7.8 41 5 83 83 S 18 30 29.94 1014 10 16 0.00 0.00
10:53 am 10:53 Cloudy with Light Rain 45 7.2 40 4.4 83 83 S 21 33 29.91 1013 6 10 0.00 0.03
11:53 am 11:53 Cloudy 45 7.2 39 3.9 80 80 S 21 33 29.90 1013 9 14 0.06 1.52
12:53 pm 12:53 Cloudy 45 7.2 40 4.4 83 83 S 20 31 29.90 1012 10 16 0.03 0.76
1:53 pm 13:53 Cloudy 45 7.2 41 5 86 86 S 18 30 29.87 1012 10 16 0.02 0.51
2:53 pm 14:53 Cloudy 47 8.3 42 5.6 83 83 S 24 39 29.82 1010 10 16 0.01 0.25
3:48 pm 15:48 Cloudy with Light Rain 43 6 39 4 87 87 W 10 17 29.85 1011 10 16 0.01 0.25
3:53 pm 15:53 Cloudy with Light Rain 44 6.7 41 5 89 89 W 12 19 29.83 1010 10 16 0.01 0.25
4:36 pm 16:36 Cloudy with Rain 46 7.8 43 6.1 89 89 S 18 30 29.83 1010 3 5 0.02 0.51
4:41 pm 16:41 Cloudy with Heavy Rain 46 7.8 42 5.6 86 86 SSW 13 20 29.83 1010 2 3 0.04 1.02
4:53 pm 16:53 Cloudy with Light Rain 45 7.2 42 5.6 90 90 S 10 17 29.80 1009 3 5 0.18 4.57
5:03 pm 17:03 Cloudy with Light Rain 45 7.2 41 5 86 86 SSW 10 17 29.83 1010 3 4 0.01 0.25
5:10 pm 17:10 Cloudy with Heavy Rain 44 6.7 42 5.6 93 93 SW 9 15 29.83 1010 1 2 0.06 1.52
5:18 pm 17:18 Cloudy with Heavy Rain 45 7.2 42 5.6 90 90 SW 12 19 29.85 1011 1 2 0.11 2.79
5:47 pm 17:47 Cloudy with Nearby Thunderstorms 45 7 43 6 93 93 W 8 13 29.83 1010 2 2 0.35 8.89
5:50 pm 17:50 Cloudy with Nearby Thunderstorms 45 7 43 6 93 93 W 8 13 29.83 1010 3 5 0.35 8.89
5:53 pm 17:53 Cloudy with Nearby Thunderstorms 44 6.7 43 6.1 96 96 W 7 11 29.80 1009 5 8 0.36 9.14
6:00 pm 18:00 Cloudy with Light Rain 45 7.2 43 6.1 93 93 W 5 7 29.83 1010 8 13 0.00 0.03
6:17 pm 18:17 Cloudy with Nearby Thunderstorms 46 7.8 44 6.7 93 93 SW 7 11 29.80 1009 10 16 0.00 0.03
6:32 pm 18:32 Partly Cloudy 46 7.8 43 6.1 89 89 WSW 5 7 29.83 1010 10 16 0.00 0.03
6:53 pm 18:53 Mostly Sunny 46 7.8 43 6.1 89 89 Calm 29.79 1009 10 16 0.00 0.03
7:14 pm 19:14 Mostly Cloudy 45 7.2 43 6.1 93 93 Calm 29.80 1009 10 16 0.00 0.00
7:34 pm 19:34 Cloudy 45 7.2 43 6.1 93 93 N 6 9 29.80 1009 10 16 0.00 0.00
7:53 pm 19:53 Mostly Cloudy 44 6.7 42 5.6 93 93 NNW 5 7 29.78 1008 10 16 0.00 0.00
8:16 pm 20:16 Mostly Cloudy 44 6.7 42 5.6 93 93 NNW 6 9 29.80 1009 10 16 0.00 0.00
8:36 pm 20:36 Cloudy with Nearby Thunderstorms 44 6.7 43 6.1 96 96 NNW 3 6 29.80 1009 9 14 0.00 0.03
8:51 pm 20:51 Cloudy with Light Rain 45 7 43 6 93 93 NNW 3 6 29.80 1009 5 8 0.02 0.51
8:53 pm 20:53 Cloudy with Rain 44 6.7 43 6.1 96 96 N 3 6 29.78 1009 4 6 0.03 0.76
8:58 pm 20:58 Cloudy with Nearby Thunderstorms 44 6.7 43 6.1 96 96 NW 5 7 29.80 1009 5 8 0.00 0.03
9:10 pm 21:10 Cloudy with Light Rain 44 6.7 42 5.6 93 93 N 6 9 29.80 1009 10 16 0.01 0.25
9:53 pm 21:53 Mostly Cloudy 43 6.1 42 5.6 97 97 E 3 6 29.79 1009 10 16 0.01 0.25
10:03 pm 22:03 Mostly Cloudy 43 6.1 42 5.6 97 97 Calm 29.83 1010 9 14 0.00 0.00
10:53 pm 22:53 Cloudy 43 6.1 41 5 93 93 E 5 7 29.81 1009 10 16 0.00 0.00
11:34 pm 23:34 Cloudy 42 5.6 40 4.4 92 92 N 5 7 29.83 1010 10 16 0.00 0.00
11:53 pm 23:53 Cloudy 42 5.6 40 4.4 92 92 NNW 5 7 29.81 1010 10 16 0.00 0.00

Powered by AerisWeather